Location: *
(46.1833°N, 22.7667°E)
Time: 15:23:42
(UTC+00:00)

Resurs 01 Rocket - Pass Details

Date: 17 September 2019
Orbit: 635 x 644 km, 98.0° (Epoch: 16 October)

Event Time Altitude Azimuth Distance (km) Brightness Sun altitude
Exits shadow 20:19:37 12° 269° (W) 1,886 4.4 -34.5°
Maximum altitude 20:19:47 12° 272° (W) 1,884 4.4 -34.5°
Drops below altitude 10° 20:21:38 10° 296° (WNW) 2,041 4.9 -34.7°
Sets 20:25:13 0° 327° (NNW) 2,960 6.1 -35.1°
